Tracking 30262 objects as of 17-Feb-2025
HD Live streaming from Space Station
objects crossing your sky now

DIADEME 2

Track DIADEME 2 now!
10-day predictions
DIADEME 2 is classified as:


NORAD ID: 2680
Int'l Code: 1967-014A
Perigee: 585.2 km
Apogee: 1,642.6 km
Inclination: 39.4 °
Period: 107.4 minutes
Semi major axis: 7484 km
RCS: 0.6374 m2 (medium)
Launch date: February 15, 1967
Source: France (FR)
Launch site: HAMMA GUIRA SPACE TRACK RANGE (HGSTR)
Your satellite tracking list
Your tracking list is empty




NASA's NSSDC Master Catalog

Two Line Element Set (TLE):
1  2680U 67014A   25048.23425153  .00000996  00000-0  42869-3 0  9994
2  2680  39.4386  95.5703 0706375 157.5665 205.7617 13.40672536811312
Source of the keplerian elements: AFSPC